Location: Yellowknife
(62.4500°N, 114.3500°W)
Time: 04:32:43
(UTC-06:00)

OTV 5 (USA 277) - Visible Passes

Search period start: 18 August 2018 00:00
Search period end: 28 August 2018 00:00
Orbit: 316 x 317 km, 54.5° (Epoch: 30 July)

Date Brightness Start Highest point End Pass type
(mag) Time Alt. Az. Time Alt. Az. Time Alt. Az.
20 Aug ? 22:38:52 10° S 22:39:32 11° SSE 22:39:51 10° SSE visible
21 Aug ? 22:52:11 10° SSW 22:53:39 14° SSE 22:53:58 13° SSE visible
22 Aug ? 23:06:04 10° SSW 23:07:49 16° S 23:07:54 16° S visible
23 Aug ? 23:20:11 10° SW 23:21:44 16° S 23:21:44 16° S visible
24 Aug ? 23:34:29 10° SW 23:35:29 14° SSW 23:35:29 14° SSW visible
25 Aug ? 22:14:56 10° SW 22:16:43 16° S 22:18:21 11° SE visible
25 Aug ? 23:49:02 10° SW 23:49:13 11° SW 23:49:13 11° SW visible
26 Aug ? 22:29:08 10° SW 22:30:53 16° S 22:32:03 13° SSE visible
27 Aug ? 22:43:32 10° SW 22:45:03 14° SSW 22:45:45 13° S visible
